Regional Weather Roundup
Issued by NWS

Home | Current Version | Previous Version | Graphics & Text | Print | Product List | Glossary On
Versions: 1 2 3 4 5 6 7 8 9 10 11 12 13 14 15 16 17 18 19 20 21 22 23 24 25 26 27 28 29 30 31 32
000
ASUS45 KGTF 061810
RWRMT
MONTANA HOURLY WEATHER ROUNDUP
NATIONAL WEATHER SERVICE GREAT FALLS MT
1200 PM MDT WED MAY 06 2015

NOTE: "FAIR" INDICATES FEW OR NO CLOUDS BELOW 12000 FEET WITH NO
SIGNIFICANT WEATHER AND/OR OBSTRUCTIONS TO VISIBILITY.

MTZ001>007-043-061900-
WEST OF THE DIVIDE

CITY           SKY/WX    TMP DP  RH WIND       PRES   REMARKS
KALISPELL      PTCLDY    55  21  26 VRB6      29.93F
MISSOULA       SUNNY     55  22  27 VRB3      29.93F
BUTTE          SUNNY     47  23  38 VRB6      29.90F
DEER LODGE       N/A     50  23  34 N8        29.94F
EUREKA           N/A     55  23  28 W5        29.93F
HAMILTON         N/A     54  21  28 NW8       29.90F
LIBBY            N/A     54  21  28 W3        29.95F
$$

MTZ008-052>055-061900-
SOUTHWEST MONTANA

CITY           SKY/WX    TMP DP  RH WIND       PRES   REMARKS
BOZEMAN        CLOUDY    48  34  58 W3        29.92S
DILLON         MOSUNNY   51  33  50 NE8       29.88S
$$

MTZ009-010-012-014-046-048-049-054-061900-
EAST SLOPES AND CENTRAL MONTANA

CITY           SKY/WX    TMP DP  RH WIND       PRES   REMARKS
CUT BANK       MOSUNNY   48  31  51 NE9G18    29.96S
GREAT FALLS    MOSUNNY   53  32  44 NE9G20    29.93F
MALMSTROM AFB  MOSUNNY   49  37  64 NE7       29.95S
HELENA         PTSUNNY   53  29  39 MISG      29.92S
$$

MTZ011-013-016-021-045-047-050-051-061900-
NORTH CENTRAL MONTANA

CITY           SKY/WX    TMP DP  RH WIND       PRES   REMARKS
HAVRE          PTSUNNY   50  37  61 NW20      29.94R
LEWISTOWN      CLOUDY    49  35  58 NW16G22   29.92S
CHINOOK          N/A     52  37  58 W20G28    29.90S
FORT BENTON      N/A     52  36  54 NW5       29.95F
$$

MTZ017>020-022>042-056>058-061-062-061900-
EASTERN PLAINS

CITY           SKY/WX    TMP DP  RH WIND       PRES   REMARKS
BAKER          LGT RAIN  58  56  93 W7        29.71F
BILLINGS       CLOUDY    52  34  50 N7        29.89R
GLASGOW        CLOUDY    52  42  69 NW21G26   29.79S
JORDAN           N/A     50  42  74 NW16G24   29.82R
LIVINGSTON     CLOUDY    48  34  58 SW8       29.90S
MILES CITY     CLOUDY    52  42  69 NW21      29.78R
SIDNEY         CLOUDY    57  54  88 S6        29.71S
WOLF POINT     CLOUDY    58  45  62 NW14      29.76R
BIG TIMBER       N/A     45  36  70 NE7       29.91S
FORSYTH          N/A     48  45  87 W14       29.82
PLENTYWOOD       N/A     52  50  93 NW16G24   29.73R
POPLAR           N/A     55  50  82 NW12G17   29.74S
$$

REGIONAL REPORTS...DAKOTAS

CITY           SKY/WX    TMP DP  RH WIND       PRES   REMARKS
WILLISTON      RAIN      59  57  93 SE6       29.71S FOG
MINOT          RAIN      61  58  90 E9        29.72F FOG
DICKINSON      LGT RAIN  61  56  83 SE8       29.68F
BEACH          LGT RAIN  57  57 100 SW5       29.71F
CROSBY         CLOUDY    59  59 100 S15       29.71S
WATFORD CITY   MOCLDY    59  57  94 S6        29.69F
BISMARCK       CLOUDY    63  61  93 SE18      29.71F
GRAND FORKS    CLOUDY    61  59  93 S14G23    29.85F
FARGO          LGT RAIN  63  59  87 SE17      29.85F
BUFFALO SD       N/A     58  55  90 SE6       29.63F
RAPID CITY     CLOUDY    61  55  81 W5        29.66F
$$

REGIONAL REPORTS...WYOMING/IDAHO/WASHINGTON

CITY           SKY/WX    TMP DP  RH WIND       PRES   REMARKS
GILLETTE       CLOUDY    50  47  89 NW22      29.73R FOG
SHERIDAN       LGT RAIN  44  40  85 NW31G38   29.85R
BUFFALO WY     CLOUDY    51  40  65 NW32G45   29.79S
CODY           CLOUDY    46  36  66 N17       29.86S
YELLOWSTONE LA   N/A     48  35  60 VRB3      29.88F
IDAHO FALLS    MOSUNNY   58  38  47 SW8       29.82F
SALMON         SUNNY     55  28  35 N5        29.82F
BOISE          PTSUNNY   56  28  34 NW17      29.86F
SPOKANE        MOSUNNY   52  30  43 SW3       29.98F
$$

REGIONAL REPORTS...ALBERTA

CITY           SKY/WX    TMP DP  RH WIND       PRES   REMARKS
EDMONTON       LGT SNOW  32  30  93 NW16      29.99S VSB 5/8 WCI  21
CALGARY        PTSUNNY   43  23  45 N22G29    29.99S
LETHBRIDGE     PTSUNNY   48  28  46 NW18G25   29.98F
MEDICINE HAT   PTSUNNY   50  34  53 NW14      29.94S
$$

REGIONAL REPORTS...SASKATCHEWAN

CITY           SKY/WX    TMP DP  RH WIND       PRES   REMARKS
SWIFT CURRENT  CLOUDY    46  37  71 NW30      29.81S
REGINA         LGT RAIN  52  45  76 W21G28    29.75R
SASKATOON      CLOUDY    46  43  87 NW6       29.76R
$$



USA.gov is the U.S. government's official web portal to all federal, state and local government web resources and services.